Location: Shenandoah County Park
(38.9356°N, 78.4524°W)
Time: 18:17:50
(UTC-05:00)

A-11 Canister half - Pass Details

Date: 10 December 2023
Orbit: 1526 x 1682 km, 47.3° (Epoch: 01 March)

Event Time Altitude Azimuth Distance (km) Brightness Sun altitude
Rises 23:25:13 0° 299° (WNW) 4,928 11.9 -71.7°
Enters shadow 23:25:50 - 299° (WNW) 4,732 11.8 -71.8°
Reaches altitude 10° 23:28:24 10° 300° (WNW) 3,928 - -72.1°
Maximum altitude 23:38:31 87° 213° (SSW) 1,644 - -72.9°
Drops below altitude 10° 23:48:17 10° 125° (SE) 3,806 - -73.6°
Sets 23:51:19 0° 125° (SE) 4,769 - -73.7°
